Weather History for Sauk Centre, MN

Change the Weather History Date:

Tuesday, December 4, 2012

  Actual Average (KGHW) Record (KGHW)
Temperature  
Mean Temperature 23 °F -  
Max Temperature 32 °F 29 °F 54 °F (1962)
Min Temperature 14 °F 11 °F -14 °F (1972)
Degree Days  
Heating Degree Days 42    
Moisture  
Dew Point 14 °F    
Average Humidity 69    
Maximum Humidity 86    
Minimum Humidity 51    
Precipitation  
Precipitation 0.00 in - - ()
Sea Level Pressure  
Sea Level Pressure 30.18 in    
Wind  
Wind Speed 10 mph (NW)    
Max Wind Speed 17 mph    
Max Gust Speed 23 mph    
Visibility 10 miles    
Events      
Averages and records for this station are not official NWS values.
T = Trace of Precipitation, MM = Missing Value Source: NWS Daily Summary

Daily Weather History Graph

Daily Weather History Graph

Search for Another Location

Airport:

Trip Planner

Search our weather history database for the weather conditions in past years. The results will help you decide how hot, cold, wet, or windy it might be!

Date:

Astronomy

Dec. 04, 2012 Rise Set
Actual Time 7:44 AM CST 4:36 PM CST
Civil Twilight 7:10 AM CST 5:09 PM CST
Nautical Twilight 6:32 AM CST 5:47 PM CST
Astronomical Twilight 5:56 AM CST 6:23 PM CST
Moon 10:36 PM CST (12/4) 11:28 AM CST (12/4)
Length of Visible Light 9h 59m
Length of Day
8h 52m
Waning Gibbous, 69% of the Moon is Illuminated
Dec 4
Waning Gibbous
Dec 6
Last Quarter
Dec 13
New
Dec 19
First Quarter
Dec 28
Full

Hourly Weather History & Observations

Time (CST) Temp. Windchill Dew Point Humidity Pressure Visibility Wind Dir Wind Speed Gust Speed Precip Events Conditions
12:15 AM 32.0 °F 22.1 °F 26.6 °F 80% 29.92 in 10.0 mi West 13.8 mph 18.4 mph N/A   Clear
12:35 AM 32.0 °F 21.6 °F 24.8 °F 75% 29.92 in 10.0 mi West 15.0 mph 23.0 mph N/A   Clear
12:55 AM 32.0 °F 22.5 °F 24.8 °F 75% 29.93 in 10.0 mi West 12.7 mph - N/A   Clear
1:15 AM 30.2 °F 21.3 °F 23.0 °F 75% 29.94 in 10.0 mi West 10.4 mph - N/A   Clear
1:35 AM 28.4 °F 19.1 °F 23.0 °F 80% 29.95 in 10.0 mi West 10.4 mph - N/A   Clear
1:55 AM 28.4 °F 19.7 °F 23.0 °F 80% 29.96 in 10.0 mi West 9.2 mph - N/A   Clear
2:15 AM 28.4 °F 20.4 °F 21.2 °F 74% 29.97 in 10.0 mi West 8.1 mph - N/A   Clear
2:35 AM 26.6 °F 17.5 °F 19.4 °F 74% 29.98 in 10.0 mi West 9.2 mph - N/A   Clear
2:55 AM 26.6 °F 15.7 °F 17.6 °F 69% 29.97 in 10.0 mi West 12.7 mph - N/A   Clear
3:15 AM 26.6 °F 15.7 °F 17.6 °F 69% 29.99 in 10.0 mi West 12.7 mph 20.7 mph N/A   Clear
3:35 AM 26.6 °F 15.7 °F 17.6 °F 69% 29.99 in 10.0 mi West 12.7 mph 19.6 mph N/A   Clear
3:55 AM 26.6 °F 14.7 °F 15.8 °F 64% 30.00 in 10.0 mi WNW 15.0 mph 20.7 mph N/A   Clear
4:15 AM 24.8 °F 14.0 °F 15.8 °F 69% 30.00 in 10.0 mi WNW 11.5 mph 19.6 mph N/A   Clear
4:35 AM 23.0 °F 11.1 °F 15.8 °F 74% 30.01 in 10.0 mi WNW 12.7 mph - N/A   Clear
4:55 AM 23.0 °F 11.7 °F 15.8 °F 74% 30.02 in 10.0 mi WNW 11.5 mph - N/A   Clear
5:15 AM 23.0 °F 13.9 °F 15.8 °F 74% 30.02 in 10.0 mi WNW 8.1 mph - N/A   Clear
5:35 AM 23.0 °F 14.7 °F 14.0 °F 68% 30.03 in 10.0 mi WNW 6.9 mph - N/A   Clear
5:55 AM 21.2 °F 10.9 °F 14.0 °F 74% 30.03 in 10.0 mi WNW 9.2 mph - N/A   Clear
6:15 AM 21.2 °F 10.1 °F 14.0 °F 74% 30.04 in 10.0 mi WNW 10.4 mph - N/A   Clear
6:35 AM 21.2 °F 10.1 °F 14.0 °F 74% 30.06 in 10.0 mi WNW 10.4 mph - N/A   Clear
6:55 AM 21.2 °F 10.1 °F 14.0 °F 74% 30.07 in 10.0 mi WNW 10.4 mph - N/A   Clear
7:15 AM 21.2 °F 10.1 °F 14.0 °F 74% 30.08 in 10.0 mi NW 10.4 mph - N/A   Clear
7:35 AM 19.4 °F 8.6 °F 14.0 °F 80% 30.10 in 10.0 mi WNW 9.2 mph - N/A   Clear
7:55 AM 19.4 °F 8.6 °F 14.0 °F 80% 30.11 in 10.0 mi WNW 9.2 mph - N/A   Clear
8:15 AM 19.4 °F 8.6 °F 14.0 °F 80% 30.12 in 10.0 mi WNW 9.2 mph - N/A   Clear
8:35 AM 21.2 °F 10.9 °F 14.0 °F 74% 30.14 in 10.0 mi WNW 9.2 mph - N/A   Clear
8:55 AM 21.2 °F 10.1 °F 14.0 °F 74% 30.15 in 10.0 mi West 10.4 mph - N/A   Clear
9:15 AM 21.2 °F 8.3 °F 14.0 °F 74% 30.15 in 10.0 mi WNW 13.8 mph 17.3 mph N/A   Clear
9:55 AM 21.2 °F 8.9 °F 12.2 °F 68% 30.18 in 10.0 mi WNW 12.7 mph 17.3 mph N/A   Clear
10:15 AM 23.0 °F 10.6 °F 12.2 °F 63% 30.19 in 10.0 mi NW 13.8 mph - N/A   Clear
10:35 AM 23.0 °F 9.2 °F 12.2 °F 63% 30.19 in 10.0 mi WNW 17.3 mph - N/A   Clear
10:55 AM 23.0 °F 10.6 °F 12.2 °F 63% 30.21 in 10.0 mi NW 13.8 mph - N/A   Clear
11:15 AM 23.0 °F 10.6 °F 12.2 °F 63% 30.21 in 10.0 mi NW 13.8 mph - N/A   Clear
11:35 AM 23.0 °F 10.6 °F 12.2 °F 63% 30.21 in 10.0 mi NW 13.8 mph - N/A   Clear
11:55 AM 23.0 °F 10.6 °F 12.2 °F 63% 30.21 in 10.0 mi NW 13.8 mph - N/A   Clear
12:15 PM 24.8 °F 12.9 °F 12.2 °F 59% 30.22 in 10.0 mi NW 13.8 mph 18.4 mph N/A   Clear
12:35 PM 24.8 °F 13.4 °F 12.2 °F 59% 30.22 in 10.0 mi NW 12.7 mph 17.3 mph N/A   Clear
12:55 PM 26.6 °F 15.7 °F 12.2 °F 55% 30.22 in 10.0 mi WNW 12.7 mph 17.3 mph N/A   Clear
1:15 PM 26.6 °F 15.2 °F 10.4 °F 51% 30.23 in 10.0 mi WNW 13.8 mph - N/A   Clear
1:35 PM 26.6 °F 15.2 °F 10.4 °F 51% 30.22 in 10.0 mi NW 13.8 mph - N/A   Clear
1:55 PM 26.6 °F 15.2 °F 10.4 °F 51% 30.22 in 10.0 mi WNW 13.8 mph - N/A   Clear
2:15 PM 26.6 °F 15.2 °F 10.4 °F 51% 30.23 in 10.0 mi NW 13.8 mph - N/A   Clear
2:35 PM 26.6 °F 17.5 °F 10.4 °F 51% 30.24 in 10.0 mi NW 9.2 mph - N/A   Clear
2:55 PM 26.6 °F 16.2 °F 10.4 °F 51% 30.24 in 10.0 mi NW 11.5 mph 16.1 mph N/A   Clear
3:15 PM 26.6 °F 16.8 °F 10.4 °F 51% 30.26 in 10.0 mi NW 10.4 mph - N/A   Clear
3:35 PM 26.6 °F 16.8 °F 10.4 °F 51% 30.26 in 10.0 mi NW 10.4 mph - N/A   Clear
3:55 PM 26.6 °F 16.8 °F 10.4 °F 51% 30.27 in 10.0 mi NW 10.4 mph - N/A   Clear
4:15 PM 24.8 °F 14.6 °F 10.4 °F 54% 30.27 in 10.0 mi NW 10.4 mph - N/A   Clear
4:35 PM 23.0 °F 13.1 °F 10.4 °F 59% 30.27 in 10.0 mi NW 9.2 mph - N/A   Clear
4:55 PM 23.0 °F 13.9 °F 10.4 °F 59% 30.28 in 10.0 mi NW 8.1 mph - N/A   Clear
5:15 PM 21.2 °F 14.9 °F 10.4 °F 63% 30.29 in 10.0 mi NW 4.6 mph - N/A   Clear
5:35 PM 21.2 °F 13.6 °F 10.4 °F 63% 30.29 in 10.0 mi NW 5.8 mph - N/A   Clear
5:55 PM 21.2 °F 11.7 °F 12.2 °F 68% 30.29 in 10.0 mi NW 8.1 mph - N/A   Clear
6:15 PM 21.2 °F 13.6 °F 12.2 °F 68% 30.29 in 10.0 mi NW 5.8 mph - N/A   Clear
6:35 PM 19.4 °F 12.8 °F 12.2 °F 74% 30.29 in 10.0 mi North 4.6 mph - N/A   Clear
6:55 PM 19.4 °F - 12.2 °F 74% 30.30 in 10.0 mi Calm Calm - N/A   Clear
7:15 PM 19.4 °F - 12.2 °F 74% 30.30 in 10.0 mi Calm Calm - N/A   Clear
7:35 PM 17.6 °F - 12.2 °F 79% 30.31 in 10.0 mi Calm Calm - N/A   Clear
7:55 PM 17.6 °F 12.3 °F 10.4 °F 73% 30.32 in 10.0 mi North 3.5 mph - N/A   Clear
8:15 PM 17.6 °F - 10.4 °F 73% 30.33 in 10.0 mi Calm Calm - N/A   Clear
8:35 PM 17.6 °F 10.7 °F 10.4 °F 73% 30.34 in 10.0 mi North 4.6 mph - N/A   Clear
8:55 PM 19.4 °F - 12.2 °F 74% 30.33 in 10.0 mi Calm Calm - N/A   Clear
9:15 PM 17.6 °F 12.3 °F 10.4 °F 73% 30.34 in 10.0 mi North 3.5 mph - N/A   Clear
9:35 PM 17.6 °F 12.3 °F 10.4 °F 73% 30.35 in 10.0 mi North 3.5 mph - N/A   Clear
9:55 PM 14.0 °F - 10.4 °F 86% 30.36 in 10.0 mi Calm Calm - N/A   Clear
10:15 PM 15.8 °F - 10.4 °F 79% 30.37 in 10.0 mi Calm Calm - N/A   Clear
10:35 PM 14.0 °F - 10.4 °F 86% 30.37 in 10.0 mi Calm Calm - N/A   Clear
10:55 PM 14.0 °F - 10.4 °F 86% 30.36 in 10.0 mi Calm Calm - N/A   Clear
11:15 PM 14.0 °F 6.5 °F 10.4 °F 86% 30.36 in 10.0 mi NNE 4.6 mph - N/A   Clear
11:35 PM 17.6 °F 9.3 °F 10.4 °F 73% 30.35 in 10.0 mi NE 5.8 mph - N/A   Clear
11:55 PM 15.8 °F 8.6 °F 10.4 °F 79% 30.35 in 10.0 mi ENE 4.6 mph - N/A   Clear